TimeEDT,TemperatureF,Dew PointF,Humidity,Sea Level PressureIn,VisibilityMPH,Wind Direction,Wind SpeedMPH,Gust SpeedMPH,PrecipitationIn,Events,Conditions,WindDirDegrees,DateUTC
12:54 AM,45.0,39.9,82,30.00,10.0,South,12.7,24.2,N/A,,Scattered Clouds,180,2013-03-12 04:54:00
1:06 AM,44.6,39.2,81,30.00,10.0,South,11.5,23.0,N/A,,Mostly Cloudy,190,2013-03-12 05:06:00
2:18 AM,46.4,42.8,87,29.98,10.0,South,13.8,23.0,N/A,,Overcast,180,2013-03-12 06:18:00
2:54 AM,46.0,43.0,89,29.96,10.0,South,11.5,21.9,N/A,,Overcast,190,2013-03-12 06:54:00
3:27 AM,46.4,42.8,87,29.95,10.0,South,19.6,31.1,N/A,,Overcast,180,2013-03-12 07:27:00
3:38 AM,46.4,42.8,87,29.94,10.0,South,18.4,32.2,N/A,,Overcast,190,2013-03-12 07:38:00
3:54 AM,46.9,43.0,86,29.93,10.0,South,15.0,33.4,N/A,,Overcast,190,2013-03-12 07:54:00
4:09 AM,46.4,42.8,87,29.94,10.0,South,12.7,29.9,0.00,,Overcast,180,2013-03-12 08:09:00
4:34 AM,46.4,42.8,87,29.94,8.0,SSW,10.4,27.6,0.00,Rain,Light Rain,200,2013-03-12 08:34:00
4:54 AM,46.9,43.0,86,29.93,8.0,South,8.1,19.6,0.01,Rain,Light Rain,190,2013-03-12 08:54:00
5:50 AM,46.4,44.6,93,29.93,10.0,South,10.4,18.4,0.02,Rain,Light Rain,180,2013-03-12 09:50:00
5:54 AM,46.9,43.0,86,29.91,10.0,SSE,8.1,20.7,0.02,Rain,Light Rain,160,2013-03-12 09:54:00
6:54 AM,48.0,44.1,86,29.91,10.0,Variable,4.6,17.3,0.01,,Overcast,0,2013-03-12 10:54:00
7:29 AM,46.4,44.6,93,29.91,9.0,SSE,8.1,-,0.00,Rain,Light Rain,160,2013-03-12 11:29:00
7:54 AM,46.9,44.1,90,29.90,10.0,Variable,6.9,-,0.00,Rain,Light Rain,0,2013-03-12 11:54:00
8:02 AM,46.4,44.6,93,29.91,10.0,Variable,4.6,-,0.00,,Overcast,0,2013-03-12 12:02:00
8:54 AM,48.9,45.0,86,29.89,10.0,South,8.1,16.1,0.00,Rain,Light Rain,190,2013-03-12 12:54:00
9:54 AM,48.9,45.0,86,29.88,9.0,SSW,9.2,19.6,0.02,Rain,Light Rain,200,2013-03-12 13:54:00
10:40 AM,48.2,46.4,93,29.88,8.0,SSE,8.1,17.3,0.03,Rain,Light Rain,160,2013-03-12 14:40:00
10:54 AM,48.9,46.0,90,29.86,6.0,SE,6.9,-,0.05,Rain,Light Rain,130,2013-03-12 14:54:00
11:54 AM,48.9,46.0,90,29.83,8.0,SSE,11.5,21.9,0.04,Rain,Light Rain,150,2013-03-12 15:54:00
12:54 PM,48.9,46.9,93,29.81,3.0,Variable,3.5,19.6,0.05,Rain,Rain,0,2013-03-12 16:54:00
1:54 PM,48.9,46.9,93,29.77,8.0,SE,9.2,21.9,0.09,Rain,Light Rain,140,2013-03-12 17:54:00
2:54 PM,48.9,46.9,93,29.73,7.0,SE,11.5,18.4,0.08,Rain,Light Rain,130,2013-03-12 18:54:00
3:54 PM,48.9,46.9,93,29.69,4.0,ESE,9.2,19.6,0.13,Rain,Light Rain,120,2013-03-12 19:54:00
4:29 PM,50.0,46.4,87,29.69,2.0,SE,9.2,-,0.15,Rain,Rain,130,2013-03-12 20:29:00
4:41 PM,50.0,46.4,87,29.69,1.8,ESE,9.2,17.3,0.23,Rain,Rain,120,2013-03-12 20:41:00
4:50 PM,48.2,46.4,93,29.68,2.5,SE,10.4,18.4,0.27,Rain,Rain,140,2013-03-12 20:50:00
4:54 PM,48.9,46.9,93,29.66,2.5,SE,10.4,18.4,0.29,Rain,Rain,140,2013-03-12 20:54:00
5:28 PM,50.0,46.4,87,29.66,3.0,Variable,4.6,-,0.12,Rain,Light Rain,0,2013-03-12 21:28:00
5:35 PM,50.0,46.4,87,29.66,6.0,SE,6.9,17.3,0.12,Rain,Light Rain,130,2013-03-12 21:35:00
5:54 PM,50.0,48.0,93,29.64,4.0,Variable,5.8,18.4,0.12,Rain,Light Rain,0,2013-03-12 21:54:00
6:04 PM,50.0,48.2,94,29.66,2.0,SSE,6.9,20.7,0.01,Rain,Light Rain,160,2013-03-12 22:04:00
6:08 PM,50.0,48.2,94,29.66,1.8,South,8.1,-,0.01,Rain,Light Rain,180,2013-03-12 22:08:00
6:23 PM,50.0,48.2,94,29.66,1.2,South,8.1,-,0.03,Rain,Light Rain,180,2013-03-12 22:23:00
6:32 PM,48.2,48.2,100,29.66,1.5,SSE,8.1,-,0.04,Rain,Light Rain,160,2013-03-12 22:32:00
6:45 PM,48.2,46.4,93,29.66,2.5,South,8.1,-,0.05,Rain,Light Rain,190,2013-03-12 22:45:00
6:54 PM,46.9,45.0,93,29.66,4.0,West,8.1,18.4,0.05,Rain,Light Rain,280,2013-03-12 22:54:00
7:00 PM,44.6,42.8,93,29.69,2.5,WNW,16.1,20.7,0.03,Rain,Rain,290,2013-03-12 23:00:00
7:13 PM,41.0,39.2,93,29.71,5.0,West,11.5,16.1,0.04,Rain,Light Rain,280,2013-03-12 23:13:00
9:37 PM,37.4,32.0,81,29.80,10.0,WNW,16.1,23.0,N/A,,Overcast,290,2013-03-13 01:37:00
9:54 PM,37.0,33.1,86,29.80,10.0,WNW,15.0,27.6,N/A,,Overcast,300,2013-03-13 01:54:00
10:09 PM,35.6,33.8,93,29.80,10.0,West,8.1,-,N/A,,Overcast,270,2013-03-13 02:09:00
10:54 PM,36.0,32.0,86,29.81,10.0,West,8.1,18.4,N/A,,Overcast,280,2013-03-13 02:54:00
11:15 PM,35.6,32.0,87,29.82,10.0,West,9.2,-,N/A,,Overcast,270,2013-03-13 03:15:00
11:54 PM,36.0,30.0,79,29.81,10.0,WNW,6.9,-,N/A,,Overcast,300,2013-03-13 03:54:00